Sisseton, SD

3:02 AM CDT on June 29, 2017 (GMT -0500)
Sisseton

Weather History for K8D3 - January, 2014

Change the Weather History Date:

Tuesday, January 7, 2014

  Actual Average Record
Temperature  
Mean Temperature -3 °F 13 °F  
Max Temperature 6 °F 23 °F 54 °F (1963)
Min Temperature -12 °F 4 °F -26 °F (1936)
Degree Days  
Heating Degree Days 68 52  
Month to date heating degree days 479 364  
Since 1 July heating degree days 4058 3703  
Cooling Degree Days 0 0  
Month to date cooling degree days 0 0  
Year to date cooling degree days 0 0  
Moisture  
Dew Point -9 °F    
Average Humidity 75    
Maximum Humidity 92    
Minimum Humidity 58    
Precipitation  
Precipitation 0.00 in 0.02 in 0.45 in (1989)
Month to date precipitation T 0.10  
Year to date precipitation T 0.10  
Snow  
Snow 0.00 in - - ()
Month to date snowfall T  
Since 1 July snowfall 13.1  
Snow Depth 3.00 in    
Sea Level Pressure  
Sea Level Pressure 30.29 in    
Wind  
Wind Speed 5 mph (NNW)    
Max Wind Speed 13 mph    
Max Gust Speed 16 mph    
T = Trace of Precipitation, MM = Missing Value Source: NWS Daily Summary

Daily Weather History Graph

Daily Weather History Graph

Search for Another Location

Airport or City:

Trip Planner

Search our weather history database for the weather conditions in past years. The results will help you decide how hot, cold, wet, or windy it might be!

Date:

Astronomy

Jan. 07, 2014 Rise Set
Actual Time 8:08 AM CST 5:00 PM CST
Civil Twilight 7:34 AM CST 5:34 PM CST
Nautical Twilight 6:56 AM CST 6:11 PM CST
Astronomical Twilight 6:21 AM CST 6:47 PM CST
Moon 11:34 AM CST (1/7) No Moon Set
Length of Visible Light 10h 00m
Length of Day
8h 52m
Waxing Crescent, 46% of the Moon is Illuminated
Jan 7
Waxing Crescent
Jan 7
First Quarter
Jan 15
Full
Jan 23
Last Quarter
Jan 30
New

Hourly Weather History & Observations

Time (CST) Temp. Windchill Dew Point Humidity Pressure Visibility Wind Dir Wind Speed Gust Speed Precip Events Conditions
12:56 AM -8.0 °F -19.2 °F -17.0 °F 65% 30.27 in - WNW 4.6 mph - N/A   Unknown
1:56 AM -6.0 °F - -15.0 °F 65% 30.24 in - Calm Calm - N/A   Unknown
2:56 AM -5.1 °F - -14.1 °F 65% 30.25 in - Calm Calm - N/A   Unknown
3:56 AM -2.9 °F - -13.0 °F 62% 30.22 in - Calm Calm - N/A   Unknown
4:56 AM -2.9 °F -11.2 °F -11.9 °F 65% 30.21 in - West 3.5 mph - N/A   Unknown
5:56 AM -0.9 °F -8.9 °F -11.0 °F 62% 30.22 in - NW 3.5 mph - N/A   Unknown
6:56 AM -0.9 °F -17.4 °F -9.9 °F 66% 30.22 in - West 10.4 mph - N/A   Unknown
7:56 AM -0.0 °F -13.0 °F -8.0 °F 69% 30.24 in - WNW 6.9 mph - N/A   Unknown
8:56 AM -0.0 °F -9.9 °F -8.0 °F 69% 30.25 in - North 4.6 mph - N/A   Unknown
9:56 AM 1.9 °F - -7.1 °F 66% 30.27 in - Calm Calm - N/A   Unknown
10:56 AM 3.0 °F - -7.1 °F 63% 30.27 in - North - - N/A   Unknown
11:56 AM 3.9 °F -11.3 °F -5.1 °F 66% 30.27 in - North 10.4 mph - N/A   Unknown
12:56 PM 3.9 °F -13.0 °F -5.1 °F 66% 30.26 in - North 12.7 mph - N/A   Unknown
1:56 PM 5.0 °F -10.8 °F -4.0 °F 66% 30.27 in - North 11.5 mph - N/A   Unknown
2:56 PM 6.1 °F -5.6 °F -2.0 °F 69% 30.28 in - North 6.9 mph - N/A   Unknown
3:56 PM 3.9 °F -10.4 °F -4.0 °F 70% 30.29 in - NNE 9.2 mph - N/A   Unknown
4:56 PM 1.0 °F -14.0 °F -5.1 °F 75% 30.33 in - North 9.2 mph - N/A   Unknown
5:56 PM -2.0 °F -10.1 °F -7.1 °F 79% 30.34 in - NNE 3.5 mph - N/A   Unknown
6:56 PM -6.0 °F -14.7 °F -9.9 °F 83% 30.35 in - SSW 3.5 mph - N/A   Unknown
7:56 PM -5.1 °F - -9.9 °F 80% 30.38 in - Calm Calm - N/A   Unknown
8:56 PM -7.1 °F - -11.0 °F 83% 30.40 in - Calm Calm - N/A   Unknown
9:56 PM -9.0 °F - -11.9 °F 87% 30.40 in - Calm Calm - N/A   Unknown
10:56 PM -9.9 °F - -13.0 °F 86% 30.42 in - Calm Calm - N/A   Unknown
11:56 PM -11.9 °F -21.5 °F -16.1 °F 82% 30.42 in - NNW 3.5 mph - N/A   Unknown